Location: Indian Hills
(32.9760°N, 85.9450°W)
Time: 07:36:26
(UTC+00:00)

Nadezhda 4 Rocket - Pass Details

Date: 09 December 2019
Orbit: 949 x 993 km, 82.9° (Epoch: 21 January)

Event Time Altitude Azimuth Distance (km) Brightness Sun altitude
Exits shadow 10:39:18 - 353° (N) 3,146 6.5 -23.6°
Reaches altitude 10° 10:40:27 10° 353° (N) 2,712 6.1 -23.4°
Maximum altitude 10:46:40 85° 266° (W) 967 3.8 -22.1°
Drops below altitude 10° 10:52:47 10° 178° (S) 2,670 6.5 -20.9°
Sets 10:55:15 0° 178° (S) 3,609 7.2 -20.3°
